Regional Weather Roundup
Issued by NWS

Home | Current Version | Previous Version | Text Only | Print | Product List | Glossary On
Versions: 1 2 3 4 5 6 7 8 9 10 11 12 13 14 15 16 17 18 19 20 21 22 23 24 25 26 27 28 29 30 31 32 33 34 35 36 37 38 39 40 41 42 43 44 45 46 47 48 49 50
000
ASUS44 KLIX 291710
RWRLA
LOUISIANA WEATHER ROUNDUP
NATIONAL WEATHER SERVICE NEW ORLEANS LA
1200 PM CDT TUE JUL 29 2014

NOTE: "FAIR" INDICATES FEW OR NO CLOUDS BELOW 12,000 FEET WITH NO
      SIGNIFICANT WEATHER AND/OR OBSTRUCTIONS TO VISIBILITY.
      SKY/WX - SKY CONDITION AND SIGNIFICANT WEATHER.
      TMP - AIR TEMPERATURE.    DP   - DEWPOINT TEMPERATURE.
      RH  - RELATIVE HUMIDITY.  PRES - PRESSURE.
      HX  - HEAT INDEX.         WCI  - WIND CHILL INDEX.

*  THESE STATIONS ARE NOT NWS OR FAA STATIONS AND ARE NOT UNDER
   NWS QUALITY CONTROL.

LAZ040-048-061>063-065-066-069-291800-
SOUTHEAST LOUISIANA

CITY           SKY/WX    TMP DP  RH WIND       PRES   REMARKS
N.O. AUDUBON     N/A     89  68  48 MISG        N/A
N.O. INTL ARPT PTSUNNY   85  67  54 NE8       30.08S
N.O. LAKEFRONT PTSUNNY   84  68  58 N8        30.08F
N.O. DOWNTOWN* PTSUNNY   84  64  51 N7        30.08S
SLIDELL        PTSUNNY   84  66  54 N8        30.07F
BATON ROUGE    PTSUNNY   85  66  53 NE6       30.09F
BOOTHVILLE     PTSUNNY   84  71  65 NE7       30.07F
BELLE CHASSE   CLOUDY    87  67  51 NE8       30.07S
BOGALUSA*        N/A     85  64  49 N6        30.10S
GALLIANO*      NOT AVBL
NEW ROADS*     FAIR      82  67  60 E3        30.10S
GONZALES*      PTSUNNY   83  70  64 NE3       30.08F
HAMMOND*       MOSUNNY   88  63  42 CALM      30.10S
HOUMA*         PTSUNNY   84  70  61 NE7       30.07
PORT FOURCHON* CLOUDY    84  72  65 NE6       30.09S

$$

LAZ041-044-053-054-291800-
SOUTHWEST LOUISIANA

CITY           SKY/WX    TMP DP  RH WIND       PRES   REMARKS
LAKE CHARLES   PTSUNNY   87  70  56 E5        30.09F
LAFAYETTE      PTSUNNY   85  72  65 NE6       30.09F
PATTERSON      CLOUDY    84  72  65 N5        30.12S
SALT POINT       N/A     87  75  67 CALM      30.07S HX  96
NEW IBERIA     CLOUDY    86  69  56 NE7       30.09F
CHENAULT AIRPK MOSUNNY   86  68  54 E8        30.10F

$$

LAZ027-028-291800-
CENTRAL LOUISIANA

CITY           SKY/WX    TMP DP  RH WIND       PRES   REMARKS
FORT POLK      PTSUNNY   83  67  58 CALM      30.12S
ALEXANDRIA INT PTSUNNY   87  64  46 VRB3      30.10S
ALEXANDRIA     MOSUNNY   88  64  44 N7        30.11S

$$

LAZ001-002-291800-
NORTHWEST LOUISIANA

CITY           SKY/WX    TMP DP  RH WIND       PRES   REMARKS
SHREVEPORT     MOSUNNY   87  63  44 CALM      30.11F
BARKSDALE AFB  SUNNY     86  64  47 NW6       30.11F
DTN SHREVEPORT SUNNY     87  64  46 CALM      30.11F

$$

LAZ014-016-291800-
NORTHEAST LOUISIANA

CITY           SKY/WX    TMP DP  RH WIND       PRES   REMARKS
MONROE         SUNNY     87  66  49 N6        30.11S
TALLULAH       SUNNY     86  67  52 NW6       30.09F

$$




USA.gov is the U.S. government's official web portal to all federal, state and local government web resources and services.